Time,TemperatureF,DewpointF,PressureIn,WindDirection,WindDirectionDegrees,WindSpeedMPH,WindSpeedGustMPH,Humidity,HourlyPrecipIn,Conditions,Clouds,dailyrainin,SoftwareType,DateUTC
2013-05-05 00:00:00,29.0,5.0,-100.00,SE,140,13.0,38.0,36,-99.99,,,-99.99,,2013-05-05 06:00:00,
2013-05-05 00:42:00,29.0,5.0,-100.00,SE,140,13.0,38.0,36,-99.99,,,-99.99,,2013-05-05 06:42:00,
2013-05-05 00:52:00,29.0,5.0,-100.00,SE,140,13.0,38.0,36,-99.99,,,-99.99,,2013-05-05 06:52:00,
2013-05-05 01:00:00,28.0,8.0,-100.00,ESE,121,12.0,37.0,42,-99.99,,,-99.99,,2013-05-05 07:00:00,
2013-05-05 01:42:00,28.0,8.0,-100.00,ESE,121,12.0,37.0,42,-99.99,,,-99.99,,2013-05-05 07:42:00,
2013-05-05 01:52:00,28.0,8.0,-100.00,ESE,121,12.0,37.0,42,-99.99,,,-99.99,,2013-05-05 07:52:00,
2013-05-05 02:00:00,26.0,10.0,-100.00,ESE,116,12.0,36.0,51,-99.99,,,-99.99,,2013-05-05 08:00:00,
2013-05-05 02:42:00,26.0,10.0,-100.00,ESE,116,12.0,36.0,51,-99.99,,,-99.99,,2013-05-05 08:42:00,
2013-05-05 02:53:00,26.0,10.0,-100.00,ESE,116,12.0,36.0,51,-99.99,,,-99.99,,2013-05-05 08:53:00,
2013-05-05 03:00:00,25.0,9.0,-100.00,SE,129,11.0,32.0,51,-99.99,,,-99.99,,2013-05-05 09:00:00,
2013-05-05 03:42:00,25.0,9.0,-100.00,SE,129,11.0,32.0,51,-99.99,,,-99.99,,2013-05-05 09:42:00,
2013-05-05 03:52:00,25.0,9.0,-100.00,SE,129,11.0,32.0,51,-99.99,,,-99.99,,2013-05-05 09:52:00,
2013-05-05 04:00:00,24.0,7.0,-100.00,ESE,123,9.0,25.0,47,-99.99,,,-99.99,,2013-05-05 10:00:00,
2013-05-05 04:42:00,24.0,7.0,-100.00,ESE,123,9.0,25.0,47,-99.99,,,-99.99,,2013-05-05 10:42:00,
2013-05-05 04:53:00,24.0,7.0,-100.00,ESE,123,9.0,25.0,47,-99.99,,,-99.99,,2013-05-05 10:53:00,
2013-05-05 05:00:00,24.0,6.0,-100.00,ESE,123,10.0,25.0,46,-99.99,,,-99.99,,2013-05-05 11:00:00,
2013-05-05 05:42:00,24.0,6.0,-100.00,ESE,123,10.0,25.0,46,-99.99,,,-99.99,,2013-05-05 11:42:00,
2013-05-05 05:52:00,24.0,6.0,-100.00,ESE,123,10.0,25.0,46,-99.99,,,-99.99,,2013-05-05 11:52:00,
2013-05-05 06:00:00,23.0,6.0,-100.00,SE,130,11.0,27.0,46,-99.99,,,-99.99,,2013-05-05 12:00:00,
2013-05-05 06:42:00,23.0,6.0,-100.00,SE,130,11.0,27.0,46,-99.99,,,-99.99,,2013-05-05 12:42:00,
2013-05-05 06:52:00,23.0,6.0,-100.00,SE,130,11.0,27.0,46,-99.99,,,-99.99,,2013-05-05 12:52:00,
2013-05-05 07:00:00,22.0,5.0,-100.00,SE,136,17.0,33.0,47,-99.99,,,-99.99,,2013-05-05 13:00:00,
2013-05-05 07:42:00,22.0,5.0,-100.00,SE,136,17.0,33.0,47,-99.99,,,-99.99,,2013-05-05 13:42:00,
2013-05-05 07:52:00,22.0,5.0,-100.00,SE,136,17.0,33.0,47,-99.99,,,-99.99,,2013-05-05 13:52:00,
2013-05-05 08:00:00,22.0,6.0,-100.00,SSE,156,19.0,31.0,50,-99.99,,,-99.99,,2013-05-05 14:00:00,
2013-05-05 08:42:00,22.0,6.0,-100.00,SSE,156,19.0,31.0,50,-99.99,,,-99.99,,2013-05-05 14:42:00,
2013-05-05 08:52:00,22.0,6.0,-100.00,SSE,156,19.0,31.0,50,-99.99,,,-99.99,,2013-05-05 14:52:00,
2013-05-05 09:00:00,23.0,8.0,-100.00,SSE,150,20.0,43.0,51,-99.99,,,-99.99,,2013-05-05 15:00:00,
2013-05-05 09:43:00,23.0,8.0,-100.00,SSE,150,20.0,43.0,51,-99.99,,,-99.99,,2013-05-05 15:43:00,
2013-05-05 09:53:00,23.0,8.0,-100.00,SSE,150,20.0,43.0,51,-99.99,,,-99.99,,2013-05-05 15:53:00,
2013-05-05 10:00:00,24.0,10.0,-100.00,South,174,18.0,33.0,54,-99.99,,,-99.99,,2013-05-05 16:00:00,
2013-05-05 10:42:00,24.0,10.0,-100.00,South,174,18.0,33.0,54,-99.99,,,-99.99,,2013-05-05 16:42:00,
2013-05-05 10:52:00,24.0,10.0,-100.00,South,174,18.0,33.0,54,-99.99,,,-99.99,,2013-05-05 16:52:00,
2013-05-05 11:00:00,26.0,12.0,-100.00,South,175,16.0,30.0,54,-99.99,,,-99.99,,2013-05-05 17:00:00,
2013-05-05 11:42:00,26.0,12.0,-100.00,South,175,16.0,30.0,54,-99.99,,,-99.99,,2013-05-05 17:42:00,
2013-05-05 11:52:00,26.0,12.0,-100.00,South,175,16.0,30.0,54,-99.99,,,-99.99,,2013-05-05 17:52:00,
2013-05-05 12:00:00,26.0,14.0,-100.00,SSE,166,14.0,29.0,59,-99.99,,,-99.99,,2013-05-05 18:00:00,
2013-05-05 12:42:00,26.0,14.0,-100.00,SSE,166,14.0,29.0,59,-99.99,,,-99.99,,2013-05-05 18:42:00,
2013-05-05 12:52:00,26.0,14.0,-100.00,SSE,166,14.0,29.0,59,-99.99,,,-99.99,,2013-05-05 18:52:00,
2013-05-05 13:00:00,27.0,16.0,-100.00,South,174,11.0,25.0,65,-99.99,,,-99.99,,2013-05-05 19:00:00,
2013-05-05 13:42:00,27.0,16.0,-100.00,South,174,11.0,25.0,65,-99.99,,,-99.99,,2013-05-05 19:42:00,
2013-05-05 13:52:00,27.0,16.0,-100.00,South,174,11.0,25.0,65,-99.99,,,-99.99,,2013-05-05 19:52:00,
2013-05-05 14:00:00,27.0,19.0,-100.00,SSW,208,6.0,20.0,69,-99.99,,,-99.99,,2013-05-05 20:00:00,
2013-05-05 14:42:00,27.0,19.0,-100.00,SSW,208,6.0,20.0,69,-99.99,,,-99.99,,2013-05-05 20:42:00,
2013-05-05 14:52:00,27.0,19.0,-100.00,SSW,208,6.0,20.0,69,-99.99,,,-99.99,,2013-05-05 20:52:00,
2013-05-05 15:00:00,29.0,17.0,-100.00,South,171,10.0,22.0,61,-99.99,,,-99.99,,2013-05-05 21:00:00,
2013-05-05 15:42:00,29.0,17.0,-100.00,South,171,10.0,22.0,61,-99.99,,,-99.99,,2013-05-05 21:42:00,
2013-05-05 15:53:00,29.0,17.0,-100.00,South,171,10.0,22.0,61,-99.99,,,-99.99,,2013-05-05 21:53:00,
2013-05-05 16:00:00,30.0,15.0,-100.00,South,180,12.0,26.0,54,-99.99,,,-99.99,,2013-05-05 22:00:00,
2013-05-05 16:42:00,30.0,15.0,-100.00,South,180,12.0,26.0,54,-99.99,,,-99.99,,2013-05-05 22:42:00,
2013-05-05 16:52:00,30.0,15.0,-100.00,South,180,12.0,26.0,54,-99.99,,,-99.99,,2013-05-05 22:52:00,
2013-05-05 17:00:00,30.0,16.0,-100.00,South,183,16.0,28.0,54,-99.99,,,-99.99,,2013-05-05 23:00:00,
2013-05-05 17:42:00,30.0,16.0,-100.00,South,183,16.0,28.0,54,-99.99,,,-99.99,,2013-05-05 23:42:00,
2013-05-05 17:52:00,30.0,16.0,-100.00,South,183,16.0,28.0,54,-99.99,,,-99.99,,2013-05-05 23:52:00,
2013-05-05 18:00:00,30.0,16.0,-100.00,South,187,13.0,26.0,55,-99.99,,,-99.99,,2013-05-06 00:00:00,
2013-05-05 18:42:00,30.0,16.0,-100.00,South,187,13.0,26.0,55,-99.99,,,-99.99,,2013-05-06 00:42:00,
2013-05-05 18:51:00,30.0,16.0,-100.00,South,187,13.0,26.0,55,-99.99,,,-99.99,,2013-05-06 00:51:00,
2013-05-05 19:00:00,27.0,18.0,-100.00,South,177,16.0,28.0,68,-99.99,,,-99.99,,2013-05-06 01:00:00,
2013-05-05 19:42:00,27.0,18.0,-100.00,South,177,16.0,28.0,68,-99.99,,,-99.99,,2013-05-06 01:42:00,
2013-05-05 19:52:00,27.0,18.0,-100.00,South,177,16.0,28.0,68,-99.99,,,-99.99,,2013-05-06 01:52:00,
2013-05-05 20:00:00,24.0,21.0,-100.00,SSE,157,11.0,21.0,89,-99.99,,,-99.99,,2013-05-06 02:00:00,
2013-05-05 20:42:00,24.0,21.0,-100.00,SSE,157,11.0,21.0,89,-99.99,,,-99.99,,2013-05-06 02:42:00,
2013-05-05 20:52:00,24.0,21.0,-100.00,SSE,157,11.0,21.0,89,-99.99,,,-99.99,,2013-05-06 02:52:00,
2013-05-05 21:00:00,23.0,21.0,-100.00,SE,133,8.0,18.0,90,-99.99,,,-99.99,,2013-05-06 03:00:00,
2013-05-05 21:42:00,23.0,21.0,-100.00,SE,133,8.0,18.0,90,-99.99,,,-99.99,,2013-05-06 03:42:00,
2013-05-05 21:52:00,23.0,21.0,-100.00,SE,133,8.0,18.0,90,-99.99,,,-99.99,,2013-05-06 03:52:00,
2013-05-05 22:00:00,23.0,21.0,-100.00,SE,138,8.0,18.0,89,-99.99,,,-99.99,,2013-05-06 04:00:00,
2013-05-05 22:43:00,23.0,21.0,-100.00,SE,138,8.0,18.0,89,-99.99,,,-99.99,,2013-05-06 04:43:00,
2013-05-05 22:53:00,23.0,21.0,-100.00,SE,138,8.0,18.0,89,-99.99,,,-99.99,,2013-05-06 04:53:00,
2013-05-05 23:00:00,23.0,22.0,-100.00,ESE,118,6.0,19.0,96,-99.99,,,-99.99,,2013-05-06 05:00:00,
2013-05-05 23:42:00,23.0,22.0,-100.00,ESE,118,6.0,19.0,96,-99.99,,,-99.99,,2013-05-06 05:42:00,
2013-05-05 23:52:00,23.0,22.0,-100.00,ESE,118,6.0,19.0,96,-99.99,,,-99.99,,2013-05-06 05:52:00,